Location: Stockholm
(59.3330°N, 18.0500°E)
Time: 15:50:00
(UTC+02:00)

AO-85 - Visible Passes

Search period start: 12 July 2024 00:00
Search period end: 22 July 2024 00:00
Orbit: 488 x 755 km, 64.8° (Epoch: 12 July)

Date Brightness Start Highest point End Pass type
(mag) Time Alt. Az. Time Alt. Az. Time Alt. Az.
14 Jul ? 01:37:49 10° SE 01:40:00 13° ESE 01:42:15 10° E visible
15 Jul ? 01:54:02 10° SSE 01:57:38 21° ESE 02:01:23 10° ENE visible
16 Jul ? 02:11:05 10° S 02:15:22 33° SE 02:19:56 10° ENE visible
17 Jul ? 00:52:00 10° SE 00:54:21 14° ESE 00:56:48 10° E visible
17 Jul ? 02:28:35 10° SSW 02:33:15 50° SE 02:38:15 10° ENE visible
18 Jul ? 01:08:36 11° SSE 01:11:58 22° ESE 01:15:50 10° ENE visible
18 Jul ? 02:46:24 10° SW 02:51:16 73° SE 02:56:28 10° ENE visible
19 Jul ? 01:25:54 13° S 01:29:43 34° SE 01:34:19 10° ENE visible
20 Jul ? 00:06:09 10° SE 00:08:40 14° ESE 00:11:15 10° E visible
20 Jul ? 01:43:10 12° SSW 01:47:36 51° SE 01:52:36 10° ENE visible
21 Jul ? 00:23:12 13° SSE 00:26:16 23° ESE 00:30:12 10° ENE visible
21 Jul ? 02:00:42 10° SW 02:05:36 75° SE 02:10:49 10° ENE visible
